Tracking 27420 objects as of 28-May-2023
HD Live streaming from Space Station
objects crossing your sky now

COSMOS 2535 DEB

Track COSMOS 2535 DEB now!
10-day predictions


NORAD ID: 44641
Int'l Code: 2019-039M
Perigee: 568.0 km
Apogee: 605.4 km
Inclination: 97.7 °
Period: 96.3 minutes
Semi major axis: 6957 km
RCS: Unknown
Launch date: July 10, 2019
Source: Commonwealth of Independent States (former USSR) (CIS)
Launch site: PLESETSK MISSILE AND SPACE COMPLEX (PKMTR)

Note: This is SATELLITE DEBRIS
Your satellite tracking list
Your tracking list is empty




NASA's NSSDC Master Catalog

Two Line Element Set (TLE):
1 44641U 19039M   23146.38299275  .00005532  00000-0  49582-3 0  9998
2 44641  97.7195 206.7482 0026915 199.3186 160.7017 14.95912982198334
Source of the keplerian elements: AFSPC